JES3102 SABE-SACO

Flight info

Callsign JES3102
Flight time 1h 5m
Altitude 30000
Route ATOVO4B ATOVO UW5 ASISA ASISA1Q
Aircraft A20N/M-SDE2E3FGHIRWXY/LB1

Departure

Time 2026-05-03 20:32
Airport Aeroparque Jorge Newbery (SABE)

Arrival

Time 2026-05-03 21:37
Airport Ingeniero Aeronáutico Ambrosio L.V. Taravella International Airport (SACO)
Time Latitude Longitude Altitude Speed Heading
2026-05-03 20:15 -34.55714 -58.41401 52 ft 0 kts 31°
2026-05-03 20:17 -34.55725 -58.41409 30 ft 4 kts 26°
2026-05-03 20:17 -34.55750 -58.41418 28 ft 4 kts 353°
2026-05-03 20:18 -34.55767 -58.41409 28 ft 2 kts 304°
2026-05-03 20:18 -34.55770 -58.41404 28 ft 0 kts 304°
2026-05-03 20:25 -34.55760 -58.41422 28 ft 4 kts 304°
2026-05-03 20:25 -34.55739 -58.41463 28 ft 7 kts 297°
2026-05-03 20:25 -34.55721 -58.41529 27 ft 9 kts 262°
2026-05-03 20:25 -34.55769 -58.41587 25 ft 11 kts 209°
2026-05-03 20:26 -34.55824 -58.41541 26 ft 12 kts 116°
2026-05-03 20:26 -34.55866 -58.41443 26 ft 15 kts 118°
2026-05-03 20:26 -34.55919 -58.41322 25 ft 17 kts 117°
2026-05-03 20:26 -34.55991 -58.41193 26 ft 20 kts 128°
2026-05-03 20:27 -34.56080 -58.41051 25 ft 22 kts 127°
2026-05-03 20:27 -34.56169 -58.40889 28 ft 22 kts 114°
2026-05-03 20:27 -34.56215 -58.40753 26 ft 18 kts 124°
2026-05-03 20:27 -34.56288 -58.40620 27 ft 20 kts 123°
2026-05-03 20:28 -34.56381 -58.40509 25 ft 16 kts 137°
2026-05-03 20:28 -34.56402 -58.40485 25 ft 0 kts 137°
2026-05-03 20:28 -34.56404 -58.40483 25 ft 1 kts 137°
2026-05-03 20:29 -34.56435 -58.40448 25 ft 10 kts 137°
2026-05-03 20:29 -34.56502 -58.40383 25 ft 13 kts 164°
2026-05-03 20:29 -34.56553 -58.40446 25 ft 12 kts 282°
2026-05-03 20:29 -34.56529 -58.40497 26 ft 0 kts 304°
2026-05-03 20:31 -34.56519 -58.40515 26 ft 22 kts 304°
2026-05-03 20:31 -34.56259 -58.40977 27 ft 108 kts 303°
2026-05-03 20:32 -34.55723 -58.41944 210 ft 155 kts 305°
2026-05-03 20:32 -34.55099 -58.43079 982 ft 166 kts 308°
2026-05-03 20:32 -34.54143 -58.43841 1618 ft 175 kts 353°
2026-05-03 20:32 -34.52910 -58.43528 2219 ft 190 kts 21°
2026-05-03 20:33 -34.51724 -58.42761 3027 ft 196 kts 27°
2026-05-03 20:33 -34.50532 -58.41887 3757 ft 205 kts 27°
2026-05-03 20:33 -34.49305 -58.40961 4525 ft 210 kts 28°
2026-05-03 20:33 -34.48045 -58.40005 5005 ft 219 kts 28°
2026-05-03 20:34 -34.46670 -58.38969 5341 ft 245 kts 28°
2026-05-03 20:34 -34.45148 -58.37823 5845 ft 269 kts 28°
2026-05-03 20:34 -34.43547 -58.36613 6594 ft 278 kts 28°
2026-05-03 20:34 -34.41857 -58.35372 7478 ft 281 kts 21°
2026-05-03 20:35 -34.40741 -58.34901 8024 ft 278 kts
2026-05-03 20:35 -34.39328 -58.34847 8685 ft 273 kts 347°
2026-05-03 20:35 -34.37589 -58.35660 9612 ft 268 kts 324°
2026-05-03 20:35 -34.36033 -58.36928 10456 ft 274 kts 322°
2026-05-03 20:36 -34.34432 -58.38301 10794 ft 297 kts 321°
2026-05-03 20:36 -34.32671 -58.39802 11091 ft 320 kts 322°
2026-05-03 20:36 -34.30912 -58.41489 11737 ft 325 kts 311°
2026-05-03 20:36 -34.29653 -58.43742 12512 ft 326 kts 294°
2026-05-03 20:37 -34.28720 -58.46260 13297 ft 330 kts 291°
2026-05-03 20:37 -34.27840 -58.48845 14039 ft 335 kts 290°
2026-05-03 20:37 -34.26977 -58.51485 14773 ft 338 kts 289°
2026-05-03 20:37 -34.26119 -58.54139 15516 ft 341 kts 289°
2026-05-03 20:38 -34.25251 -58.56826 16225 ft 345 kts 289°
2026-05-03 20:38 -34.24373 -58.59533 16925 ft 348 kts 289°
2026-05-03 20:38 -34.23482 -58.62268 17609 ft 352 kts 288°
2026-05-03 20:38 -34.22581 -58.65029 18280 ft 355 kts 288°
2026-05-03 20:39 -34.21669 -58.67816 18897 ft 358 kts 288°
2026-05-03 20:39 -34.20751 -58.70622 19492 ft 361 kts 288°
2026-05-03 20:39 -34.19823 -58.73455 20088 ft 364 kts 288°
2026-05-03 20:39 -34.18884 -58.76321 20688 ft 367 kts 288°
2026-05-03 20:40 -34.17936 -58.79211 21267 ft 371 kts 288°
2026-05-03 20:40 -34.16997 -58.82070 21847 ft 374 kts 288°
2026-05-03 20:40 -34.16032 -58.85007 22430 ft 377 kts 288°
2026-05-03 20:40 -34.15060 -58.87961 22988 ft 380 kts 288°
2026-05-03 20:41 -34.14081 -58.90937 23553 ft 384 kts 288°
2026-05-03 20:41 -34.13090 -58.93942 24043 ft 386 kts 288°
2026-05-03 20:41 -34.12080 -58.97000 24543 ft 388 kts 288°
2026-05-03 20:41 -34.11089 -59.00000 25014 ft 391 kts 288°
2026-05-03 20:42 -34.10067 -59.03092 25490 ft 393 kts 288°
2026-05-03 20:42 -34.09062 -59.06128 25932 ft 395 kts 287°
2026-05-03 20:42 -34.08039 -59.09218 26375 ft 398 kts 287°
2026-05-03 20:42 -34.06961 -59.12303 26815 ft 402 kts 291°
2026-05-03 20:43 -34.05612 -59.15296 27225 ft 409 kts 296°
2026-05-03 20:43 -34.03976 -59.18131 27635 ft 416 kts 302°
2026-05-03 20:43 -34.02110 -59.20826 28021 ft 420 kts 304°
2026-05-03 20:43 -34.00224 -59.23526 28397 ft 422 kts 304°
2026-05-03 20:44 -33.98335 -59.26245 28770 ft 425 kts 304°
2026-05-03 20:44 -33.96433 -59.28984 29133 ft 427 kts 304°
2026-05-03 20:44 -33.94522 -59.31736 29474 ft 429 kts 303°
2026-05-03 20:44 -33.92602 -59.34498 29824 ft 432 kts 303°
2026-05-03 20:45 -33.90667 -59.37278 30055 ft 434 kts 303°
2026-05-03 20:45 -33.86783 -59.42848 30086 ft 434 kts 303°
2026-05-03 20:46 -33.82909 -59.48397 30081 ft 434 kts 303°
2026-05-03 20:46 -33.79033 -59.53940 30078 ft 434 kts 304°
2026-05-03 20:47 -33.75137 -59.59499 30079 ft 434 kts 304°
2026-05-03 20:47 -33.71247 -59.65049 30076 ft 434 kts 304°
2026-05-03 20:48 -33.67370 -59.70568 30074 ft 434 kts 304°
2026-05-03 20:48 -33.63467 -59.76108 30079 ft 434 kts 304°
2026-05-03 20:49 -33.59564 -59.81640 30073 ft 434 kts 304°
2026-05-03 20:49 -33.55655 -59.87170 30066 ft 434 kts 304°
2026-05-03 20:50 -33.51744 -59.92697 30077 ft 434 kts 304°
2026-05-03 20:50 -33.47832 -59.98215 30060 ft 434 kts 304°
2026-05-03 20:51 -33.43916 -60.03731 30071 ft 434 kts 304°
2026-05-03 20:51 -33.40023 -60.09205 30066 ft 434 kts 304°
2026-05-03 20:52 -33.36103 -60.14710 30062 ft 434 kts 304°
2026-05-03 20:52 -33.32182 -60.20203 30060 ft 434 kts 304°
2026-05-03 20:53 -33.28232 -60.25687 30064 ft 434 kts 304°
2026-05-03 20:53 -33.24303 -60.31164 30056 ft 434 kts 304°
2026-05-03 20:54 -33.20380 -60.36644 30057 ft 434 kts 304°
2026-05-03 20:54 -33.14518 -60.44821 30056 ft 434 kts 304°
2026-05-03 20:55 -33.10591 -60.50287 30052 ft 434 kts 304°
2026-05-03 20:55 -33.06661 -60.55748 30052 ft 434 kts 304°
2026-05-03 20:56 -33.02728 -60.61204 30052 ft 434 kts 304°
2026-05-03 20:56 -32.98791 -60.66657 30050 ft 434 kts 304°
2026-05-03 20:57 -32.94854 -60.72101 30048 ft 434 kts 304°
2026-05-03 20:57 -32.90955 -60.77575 30046 ft 431 kts 301°
2026-05-03 20:58 -32.87805 -60.83552 30047 ft 425 kts 294°
2026-05-03 20:58 -32.84821 -60.89626 30047 ft 425 kts 294°
2026-05-03 20:59 -32.81823 -60.95694 30045 ft 425 kts 294°
2026-05-03 20:59 -32.78825 -61.01748 30045 ft 425 kts 294°
2026-05-03 21:00 -32.76835 -61.05761 30046 ft 425 kts 294°
2026-05-03 21:00 -32.72812 -61.13862 30042 ft 425 kts 294°
2026-05-03 21:01 -32.69822 -61.19871 30038 ft 425 kts 294°
2026-05-03 21:01 -32.66808 -61.25918 30039 ft 425 kts 294°
2026-05-03 21:02 -32.63789 -61.31964 30035 ft 426 kts 295°
2026-05-03 21:02 -32.60768 -61.38005 30037 ft 425 kts 295°
2026-05-03 21:03 -32.57743 -61.44044 30034 ft 426 kts 295°
2026-05-03 21:03 -32.54717 -61.50075 30033 ft 426 kts 295°
2026-05-03 21:04 -32.51678 -61.56121 30033 ft 426 kts 295°
2026-05-03 21:04 -32.48665 -61.62106 30033 ft 426 kts 295°
2026-05-03 21:05 -32.45637 -61.68136 30031 ft 426 kts 294°
2026-05-03 21:05 -32.42618 -61.74174 30030 ft 426 kts 294°
2026-05-03 21:06 -32.39575 -61.80198 30025 ft 426 kts 295°
2026-05-03 21:06 -32.36522 -61.86212 30028 ft 426 kts 295°
2026-05-03 21:07 -32.33468 -61.92222 30023 ft 426 kts 295°
2026-05-03 21:07 -32.30407 -61.98234 30023 ft 426 kts 295°
2026-05-03 21:08 -32.27346 -62.04244 30021 ft 426 kts 295°
2026-05-03 21:08 -32.24286 -62.10241 30028 ft 426 kts 295°
2026-05-03 21:09 -32.21241 -62.16202 30023 ft 426 kts 295°
2026-05-03 21:09 -32.18175 -62.22194 30021 ft 426 kts 295°
2026-05-03 21:10 -32.15105 -62.28184 30021 ft 426 kts 295°
2026-05-03 21:10 -32.12041 -62.34152 29919 ft 423 kts 295°
2026-05-03 21:11 -32.10527 -62.37097 29473 ft 420 kts 295°
2026-05-03 21:11 -32.09013 -62.40040 28887 ft 417 kts 295°
2026-05-03 21:11 -32.07513 -62.42955 28270 ft 413 kts 295°
2026-05-03 21:11 -32.06030 -62.45835 27650 ft 409 kts 295°
2026-05-03 21:12 -32.04558 -62.48692 27030 ft 406 kts 296°
2026-05-03 21:12 -32.03098 -62.51525 26428 ft 402 kts 296°
2026-05-03 21:12 -32.01651 -62.54329 25846 ft 399 kts 296°
2026-05-03 21:12 -32.00215 -62.57111 25264 ft 396 kts 296°
2026-05-03 21:13 -31.98787 -62.59875 24701 ft 393 kts 296°
2026-05-03 21:13 -31.97388 -62.62582 24147 ft 390 kts 296°
2026-05-03 21:13 -31.95983 -62.65299 23587 ft 388 kts 296°
2026-05-03 21:13 -31.94588 -62.67994 22962 ft 385 kts 296°
2026-05-03 21:14 -31.93193 -62.70686 22344 ft 382 kts 296°
2026-05-03 21:14 -31.91816 -62.73342 21736 ft 379 kts 296°
2026-05-03 21:14 -31.90448 -62.75980 21148 ft 376 kts 297°
2026-05-03 21:14 -31.89087 -62.78602 20573 ft 373 kts 297°
2026-05-03 21:15 -31.88194 -62.80321 20194 ft 372 kts 297°
2026-05-03 21:15 -31.86397 -62.83778 19454 ft 368 kts 297°
2026-05-03 21:15 -31.85058 -62.86352 18900 ft 366 kts 297°
2026-05-03 21:15 -31.84179 -62.88041 18553 ft 365 kts 298°
2026-05-03 21:16 -31.82861 -62.90573 17978 ft 362 kts 298°
2026-05-03 21:16 -31.81121 -62.93911 17168 ft 360 kts 298°
2026-05-03 21:16 -31.80237 -62.95608 16766 ft 359 kts 298°
2026-05-03 21:16 -31.78512 -62.98914 16003 ft 357 kts 299°
2026-05-03 21:17 -31.77636 -63.00591 15609 ft 356 kts 299°
2026-05-03 21:17 -31.76343 -63.03063 15186 ft 350 kts 299°
2026-05-03 21:17 -31.75099 -63.05429 14993 ft 331 kts 301°
2026-05-03 21:17 -31.73569 -63.07344 14818 ft 316 kts 320°
2026-05-03 21:18 -31.71819 -63.08779 14669 ft 298 kts 322°
2026-05-03 21:18 -31.70151 -63.10111 14528 ft 281 kts 322°
2026-05-03 21:18 -31.68585 -63.11355 14300 ft 272 kts 322°
2026-05-03 21:18 -31.67020 -63.12602 13978 ft 271 kts 322°
2026-05-03 21:19 -31.65470 -63.13837 13627 ft 269 kts 322°
2026-05-03 21:19 -31.63925 -63.15074 13260 ft 268 kts 322°
2026-05-03 21:19 -31.62389 -63.16305 12916 ft 266 kts 322°
2026-05-03 21:19 -31.60866 -63.17529 12566 ft 264 kts 322°
2026-05-03 21:20 -31.59358 -63.18744 12230 ft 262 kts 322°
2026-05-03 21:20 -31.57869 -63.19945 12049 ft 254 kts 322°
2026-05-03 21:20 -31.56414 -63.21118 12017 ft 257 kts 322°
2026-05-03 21:20 -31.54921 -63.22327 12016 ft 263 kts 322°
2026-05-03 21:21 -31.53414 -63.23546 12014 ft 262 kts 322°
2026-05-03 21:21 -31.51919 -63.24754 11983 ft 261 kts 322°
2026-05-03 21:21 -31.50429 -63.25955 11774 ft 259 kts 322°
2026-05-03 21:21 -31.48945 -63.27152 11468 ft 258 kts 322°
2026-05-03 21:22 -31.47473 -63.28344 11138 ft 257 kts 322°
2026-05-03 21:22 -31.46031 -63.29517 10808 ft 255 kts 322°
2026-05-03 21:22 -31.44576 -63.30705 10478 ft 254 kts 322°
2026-05-03 21:22 -31.43130 -63.31895 10144 ft 253 kts 322°
2026-05-03 21:23 -31.41698 -63.33087 9794 ft 252 kts 322°
2026-05-03 21:23 -31.40422 -63.34440 9485 ft 246 kts 304°
2026-05-03 21:23 -31.39773 -63.36256 9162 ft 243 kts 277°
2026-05-03 21:23 -31.39869 -63.38191 9041 ft 234 kts 265°
2026-05-03 21:24 -31.39999 -63.39434 9025 ft 232 kts 265°
2026-05-03 21:24 -31.40199 -63.41367 9024 ft 247 kts 266°
2026-05-03 21:24 -31.40326 -63.43396 9019 ft 250 kts 269°
2026-05-03 21:24 -31.40425 -63.46067 9018 ft 247 kts 269°
2026-05-03 21:25 -31.40506 -63.48071 9016 ft 247 kts 269°
2026-05-03 21:25 -31.40601 -63.50080 9018 ft 246 kts 269°
2026-05-03 21:25 -31.40704 -63.52074 9010 ft 244 kts 269°
2026-05-03 21:25 -31.40809 -63.54053 8897 ft 243 kts 269°
2026-05-03 21:26 -31.40917 -63.56027 8602 ft 243 kts 269°
2026-05-03 21:26 -31.41027 -63.58008 8236 ft 244 kts 270°
2026-05-03 21:26 -31.41136 -63.59985 7926 ft 243 kts 270°
2026-05-03 21:26 -31.41243 -63.61949 7612 ft 242 kts 270°
2026-05-03 21:27 -31.41349 -63.63913 7296 ft 241 kts 271°
2026-05-03 21:27 -31.41454 -63.65866 6995 ft 240 kts 271°
2026-05-03 21:27 -31.41559 -63.67807 6701 ft 238 kts 271°
2026-05-03 21:27 -31.41664 -63.69702 6444 ft 236 kts 272°
2026-05-03 21:28 -31.41770 -63.71646 6123 ft 234 kts 272°
2026-05-03 21:28 -31.41871 -63.73535 6019 ft 235 kts 272°
2026-05-03 21:28 -31.41970 -63.75459 6003 ft 238 kts 272°
2026-05-03 21:28 -31.42072 -63.77385 5995 ft 236 kts 272°
2026-05-03 21:29 -31.42175 -63.79289 5836 ft 233 kts 272°
2026-05-03 21:29 -31.42275 -63.81184 5542 ft 233 kts 272°
2026-05-03 21:29 -31.42375 -63.83068 5261 ft 231 kts 272°
2026-05-03 21:29 -31.42473 -63.84907 5046 ft 227 kts 272°
2026-05-03 21:30 -31.42538 -63.86159 5005 ft 228 kts 273°
2026-05-03 21:30 -31.42665 -63.88642 5000 ft 232 kts 273°
2026-05-03 21:30 -31.42729 -63.89889 5001 ft 231 kts 273°
2026-05-03 21:30 -31.42795 -63.91151 4999 ft 230 kts 273°
2026-05-03 21:31 -31.42892 -63.92992 4997 ft 220 kts 273°
2026-05-03 21:31 -31.43015 -63.95327 5002 ft 219 kts 273°
2026-05-03 21:31 -31.43133 -63.97700 5000 ft 218 kts 273°
2026-05-03 21:31 -31.43222 -63.99474 4996 ft 219 kts 273°
2026-05-03 21:32 -31.43312 -64.01256 4998 ft 218 kts 273°
2026-05-03 21:32 -31.43403 -64.02982 4999 ft 208 kts 273°
2026-05-03 21:32 -31.43491 -64.04667 4939 ft 206 kts 273°
2026-05-03 21:32 -31.43501 -64.06332 4671 ft 204 kts 277°
2026-05-03 21:33 -31.43494 -64.08004 4309 ft 208 kts 277°
2026-05-03 21:33 -31.43490 -64.09713 3941 ft 211 kts 276°
2026-05-03 21:33 -31.43489 -64.10845 3771 ft 210 kts 276°
2026-05-03 21:33 -31.43488 -64.11988 3627 ft 213 kts 276°
2026-05-03 21:34 -31.43490 -64.14888 3611 ft 204 kts 277°
2026-05-03 21:34 -31.43189 -64.16358 3581 ft 173 kts 308°
2026-05-03 21:34 -31.42329 -64.17277 3204 ft 169 kts 334°
2026-05-03 21:34 -31.41309 -64.17970 2808 ft 173 kts 334°
2026-05-03 21:35 -31.40295 -64.18667 2600 ft 164 kts 334°
2026-05-03 21:35 -31.39364 -64.19324 2502 ft 150 kts 335°
2026-05-03 21:35 -31.38477 -64.19945 2494 ft 142 kts 336°
2026-05-03 21:35 -31.37628 -64.20521 2500 ft 141 kts 341°
2026-05-03 21:36 -31.36692 -64.20781 2376 ft 138 kts
2026-05-03 21:36 -31.35741 -64.20773 2168 ft 134 kts
2026-05-03 21:36 -31.34804 -64.20780 2033 ft 138 kts
2026-05-03 21:36 -31.33822 -64.20796 1903 ft 143 kts
2026-05-03 21:37 -31.32847 -64.20809 1722 ft 137 kts
2026-05-03 21:37 -31.31926 -64.20816 1618 ft 120 kts
2026-05-03 21:37 -31.31519 -64.20827 1615 ft 13 kts 352°
2026-05-03 21:37 -31.31466 -64.20909 1613 ft 12 kts 275°
2026-05-03 21:38 -31.31465 -64.20952 1613 ft 0 kts 270°
2026-05-03 21:38 -31.31465 -64.20972 1613 ft 5 kts 270°
2026-05-03 21:39 -31.31474 -64.21025 1620 ft 9 kts 246°
2026-05-03 21:39 -31.31514 -64.21072 1616 ft 7 kts 207°
2026-05-03 21:39 -31.31541 -64.21121 1618 ft 7 kts 254°
2026-05-03 21:39 -31.31549 -64.21155 1619 ft 4 kts 257°
2026-05-03 21:40 -31.31551 -64.21170 1616 ft 2 kts 258°
2026-05-03 21:40 -31.31551 -64.21171 1616 ft 0 kts 258°